User: anonymous   Login
Location: Pilipovskiye Korichintsy
(49.1833°N, 27.4667°E)
Time: 08:04:50
(UTC+00:00)
Language:

Cosmos 1864 Rocket - Orbit

View from above orbital plane
View from above orbital plane
View from above satellite
View from above satellite

Ground track
Ground track

The orbit data is extracted from the following two-line orbital elements,

1 18161U 87057B   20272.76909152  .00000224  00000-0  21087-3 0  9995
2 18161  82.9304 259.1558 0030842 193.8879 339.5249 13.77066172649310
Epoch (UTC): 28 September 2020 18:27:29
Eccentricity: 0.0030842
inclination: 82.9304°
perigee height: 951 km
apogee height: 997 km
right ascension of ascending node: 259.1558°
argument of perigee: 193.8879°
revolutions per day: 13.77066172
mean anomaly at epoch: 339.5249°
orbit number at epoch: 64931

The dashed part of the orbit path shows where the satellite is in the earth's shadow,  

DLR